Williamsport, PA

7:55 AM EDT on July 28, 2017 (GMT -0400)
Williamsport Rgnl

Weather History for KIPT - December, 2013

Change the Weather History Date:

Sunday, December 1, 2013

  Actual Average Record
Temperature  
Mean Temperature 26 °F 36 °F  
Max Temperature 32 °F 43 °F 70 °F (2006)
Min Temperature 20 °F 29 °F 5 °F (1976)
Degree Days  
Heating Degree Days 39 29  
Month to date heating degree days 39 29  
Since 1 July heating degree days 1282 1274  
Cooling Degree Days 0 0  
Month to date cooling degree days 0 0  
Year to date cooling degree days 863 702  
Moisture  
Dew Point 21 °F    
Average Humidity 75    
Maximum Humidity 91    
Minimum Humidity 58    
Precipitation  
Precipitation T in 0.12 in 2.91 in (2010)
Month to date precipitation T 0.12  
Year to date precipitation 29.05 38.47  
Snow  
Snow T in 0.20 in 2.00 in (1907)
Month to date snowfall T 0.2  
Since 1 July snowfall 2.2 2.0  
Snow Depth T in    
Sea Level Pressure  
Sea Level Pressure 30.18 in    
Wind  
Wind Speed 1 mph (East)    
Max Wind Speed 8 mph    
Max Gust Speed 10 mph    
Visibility 7 miles    
Events Snow    
T = Trace of Precipitation, MM = Missing Value Source: NWS Daily Summary

Daily Weather History Graph

Daily Weather History Graph

Search for Another Location

Airport or City:

Trip Planner

Search our weather history database for the weather conditions in past years. The results will help you decide how hot, cold, wet, or windy it might be!

Date:

Astronomy

Dec. 01, 2013 Rise Set
Actual Time 7:14 AM EST 4:39 PM EST
Civil Twilight 6:43 AM EST 5:10 PM EST
Nautical Twilight 6:09 AM EST 5:44 PM EST
Astronomical Twilight 5:35 AM EST 6:17 PM EST
Moon 5:29 AM EST (12/1) 3:48 PM EST (12/1)
Length of Visible Light 10h 26m
Length of Day
9h 25m
Waning Crescent, 2% of the Moon is Illuminated
Dec 1
Waning Crescent
Dec 2
New
Dec 9
First Quarter
Dec 17
Full
Dec 25
Last Quarter

Hourly Weather History & Observations

Time (EST) Temp. Windchill Dew Point Humidity Pressure Visibility Wind Dir Wind Speed Gust Speed Precip Events Conditions
12:54 AM 28.0 °F 24.2 °F 19.0 °F 69% 30.34 in 10.0 mi SSE 3.5 mph - N/A   Clear
1:54 AM 25.0 °F 20.7 °F 19.0 °F 78% 30.33 in 9.0 mi East 3.5 mph - N/A   Clear
2:54 AM 24.1 °F 19.7 °F 18.0 °F 77% 30.31 in 9.0 mi ENE 3.5 mph - N/A   Clear
3:54 AM 21.9 °F 17.2 °F 18.0 °F 85% 30.28 in 8.0 mi NE 3.5 mph - N/A   Clear
4:54 AM 21.0 °F - 17.1 °F 85% 30.27 in 8.0 mi Calm Calm - N/A   Clear
5:54 AM 19.9 °F - 17.1 °F 89% 30.25 in 7.0 mi Calm Calm - N/A   Clear
6:54 AM 21.0 °F - 17.1 °F 85% 30.25 in 7.0 mi Calm Calm - N/A   Mostly Cloudy
7:32 AM 19.4 °F - 17.6 °F 93% 30.22 in 5.0 mi Calm Calm - N/A   Overcast
7:47 AM 21.2 °F - 17.6 °F 86% 30.22 in 5.0 mi Calm Calm - N/A   Overcast
7:54 AM 21.0 °F - 18.0 °F 88% 30.25 in 4.0 mi Calm Calm - N/A   Overcast
8:05 AM 21.2 °F - 17.6 °F 86% 30.22 in 4.0 mi Calm Calm - N/A   Partly Cloudy
8:54 AM 23.0 °F - 19.9 °F 88% 30.24 in 5.0 mi Calm Calm - N/A   Partly Cloudy
9:54 AM 26.1 °F 21.9 °F 21.0 °F 81% 30.22 in 5.0 mi Variable 3.5 mph - N/A   Haze
10:54 AM 27.0 °F - 21.0 °F 78% 30.19 in 6.0 mi Calm Calm - N/A   Haze
11:54 AM 28.0 °F 24.2 °F 21.0 °F 75% 30.17 in 7.0 mi West 3.5 mph - N/A   Overcast
12:54 PM 28.9 °F - 21.0 °F 72% 30.14 in 7.0 mi Calm Calm - N/A   Overcast
1:54 PM 30.0 °F - 21.9 °F 72% 30.12 in 7.0 mi Calm Calm - N/A   Overcast
2:54 PM 30.9 °F - 21.9 °F 69% 30.11 in 8.0 mi Calm Calm - N/A   Overcast
3:54 PM 30.9 °F - 23.0 °F 72% 30.10 in 8.0 mi Calm Calm - N/A   Overcast
4:54 PM 30.9 °F - 23.0 °F 72% 30.10 in 9.0 mi Calm Calm - N/A   Overcast
5:54 PM 30.9 °F - 23.0 °F 72% 30.09 in 9.0 mi Calm Calm - N/A   Overcast
6:54 PM 30.9 °F - 24.1 °F 76% 30.09 in 8.0 mi Calm Calm - N/A   Overcast
7:54 PM 32.0 °F - 23.0 °F 69% 30.08 in 7.0 mi Calm Calm - 0.00 in Snow Light Snow
8:45 PM 30.2 °F - 26.6 °F 86% 30.05 in 2.0 mi Calm Calm - 0.00 in Snow Light Snow
8:54 PM 30.9 °F - 26.1 °F 82% 30.07 in 4.0 mi Calm Calm - 0.00 in Snow Light Snow
9:54 PM 30.9 °F - 25.0 °F 79% 30.07 in 6.0 mi Calm Calm - 0.00 in   Haze
10:54 PM 30.9 °F - 26.1 °F 82% 30.05 in 5.0 mi Calm Calm - 0.00 in   Haze
11:54 PM 30.9 °F - 26.1 °F 82% 30.04 in 5.0 mi Calm Calm - 0.00 in   Haze